DECAYED

STARLINK-5194, 54186 (Decayed)

Orbit data source: Space-Track

STARLINK-5194, 54186 was a payload satellite owned by SpaceX/Seattle (US) in LEO that was launched on Fri, 28 Oct 2022 UTC via an FALCON 9 launch vehicle from the Air Force Western Test Range (AFWTR). Payload-class satellites include a variety of spacecraft equipped with specific instruments for various scientific and technological missions. These include communications satellites like Starlink; space stations such as the ISS; scientific satellites like the Hubble; Earth observation satellites from companies like Planet Labs, Umbra, and HawkEye 360; GPS; miniature CubeSats for education and research; and military/defense satellites.

Not visible in the next 10 days
Identifier
54186, 2022-141AF
Orbit
Decayed
Country
Flag of USUS
Related business
Manufacturer
SpaceX/Seattle
Mission
Decayed Commercial Communications
Bus & Motor
STARLINK, Unknown motor
Mass
305 kg wet, ~290 kg dry
Launch date (UTC)
2022-10-28 (4 years ago)
Launch vehicle
FALCON 9
Launch site
Air Force Western Test Range (AFWTR)
Object type
Payload
Rocket body
Debris
Shape & HBR
Box + 1 Pan, 10.1 m
Radar Cross Section
13.562 m², Large (>1 m²)

Expand to show TLE details & history
Last TLE update: 8 months ago

TLE from 8 months ago
0 STARLINK-5194
1 54186U 22141AF  25295.91873863  .10277251  12341-4  32640-3 0  9990
2 54186  53.2006 230.7466 0009216 217.6505 142.3901 16.44162001165506
Epoch: 2025-10-22T22:02Z
TLE epoch observation values (Epoch: 2025-10-22T22:02:59.017Z)
Latitude
-0.00005°
Longitude
-131.58479°
Altitude
160.474 km
Speed
7.808 km/s
True Right ascension
15h 22m 59s
True Declination
0° 00' 00"
Sunlit
Object was in daylight at epoch
Visualization orbit readout
Latitude
Unknown
Longitude
Unknown
Altitude
Unknown
Speed
Unknown
Apparent Right ascension
Unknown
Apparent Declination
Unknown
Sunlit
N/A
Visualization observer readout
Local Sidereal Time
21:46:02
Azimuth
Unknown
Elevation
Unknown
Doppler factor
Unknown
Orbital elements
Apogee altitude
161.037 km
Perigee altitude
148.995 km
Semi-major axis
6,533.153 km
Eccentricity
0.00092
Inclination
53.2006°
RAAN
230.7466°
Arg. of periapsis
217.6505°
True anomaly
142.45449°
Mean anomaly
142.3901°
Eccentric anomaly
142.4223°
Mean motion
4.11016 °/min
Orbital period
87.59 mins
BSTAR
0.0003264
Loading maneuver chart data...
Computing Atmospheric mass density...

Documentation

Showing up to 5 results
|